Time,TemperatureF,DewpointF,PressureIn,WindDirection,WindDirectionDegrees,WindSpeedMPH,WindSpeedGustMPH,Humidity,HourlyPrecipIn,Conditions,Clouds,dailyrainin,SoftwareType,DateUTC
2013-08-03 00:01:00,80.8,74.4,30.05,SW,235,6.0,12.0,81,0.00,,SKC,0.00,VWS V13.00,2013-08-03 04:01:00,
2013-08-03 00:06:00,80.8,74.4,30.05,SW,236,11.0,14.0,81,0.00,,SKC,0.00,VWS V13.00,2013-08-03 04:06:00,
2013-08-03 00:11:00,80.8,74.4,30.05,SW,229,9.0,14.0,81,0.00,,SKC,0.00,VWS V13.00,2013-08-03 04:11:00,
2013-08-03 00:16:00,80.7,74.3,30.05,WSW,248,8.0,13.0,81,0.00,,SKC,0.00,VWS V13.00,2013-08-03 04:16:00,
2013-08-03 00:21:00,80.7,74.3,30.05,SW,235,5.0,12.0,81,0.00,,SKC,0.00,VWS V13.00,2013-08-03 04:21:00,
2013-08-03 00:26:00,80.7,74.3,30.05,SSW,211,5.0,12.0,81,0.00,,SKC,0.00,VWS V13.00,2013-08-03 04:26:00,
2013-08-03 00:31:00,80.7,74.3,30.05,SSW,205,5.0,13.0,81,0.00,,SKC,0.00,VWS V13.00,2013-08-03 04:31:00,
2013-08-03 00:36:00,80.7,74.3,30.05,SSW,213,7.0,14.0,81,0.00,,SKC,0.00,VWS V13.00,2013-08-03 04:36:00,
2013-08-03 00:41:00,80.6,74.2,30.05,West,261,7.0,13.0,81,0.00,,SKC,0.00,VWS V13.00,2013-08-03 04:41:00,
2013-08-03 00:46:00,80.6,74.2,30.05,SW,223,6.0,11.0,81,0.00,,SKC,0.00,VWS V13.00,2013-08-03 04:46:00,
2013-08-03 00:51:00,80.6,74.2,30.05,SW,222,3.0,13.0,81,0.00,,SKC,0.00,VWS V13.00,2013-08-03 04:51:00,
2013-08-03 00:57:00,80.6,74.2,30.05,SW,215,6.0,14.0,81,0.00,,SKC,0.00,VWS V13.00,2013-08-03 04:57:00,
2013-08-03 01:02:00,80.5,74.1,30.06,WSW,257,4.0,14.0,81,0.00,,SKC,0.00,VWS V13.00,2013-08-03 05:02:00,
2013-08-03 01:07:00,80.5,74.1,30.05,SW,234,4.0,13.0,81,0.00,,SKC,0.00,VWS V13.00,2013-08-03 05:07:00,
2013-08-03 01:12:00,80.5,74.1,30.05,SW,227,5.0,13.0,81,0.00,,SKC,0.00,VWS V13.00,2013-08-03 05:12:00,
2013-08-03 01:17:00,80.5,74.1,30.05,SW,227,8.0,14.0,81,0.00,,SKC,0.00,VWS V13.00,2013-08-03 05:17:00,
2013-08-03 01:22:00,80.5,74.1,30.05,West,275,7.0,12.0,81,0.00,,SKC,0.00,VWS V13.00,2013-08-03 05:22:00,
2013-08-03 01:27:00,80.4,74.0,30.05,West,259,5.0,14.0,81,0.00,,SKC,0.00,VWS V13.00,2013-08-03 05:27:00,
2013-08-03 01:32:00,80.4,74.0,30.05,SW,235,8.0,10.0,81,0.00,,SKC,0.00,VWS V13.00,2013-08-03 05:32:00,
2013-08-03 01:37:00,80.3,73.9,30.05,WSW,254,7.0,7.0,81,0.00,,SKC,0.00,VWS V13.00,2013-08-03 05:37:00,
2013-08-03 01:42:00,80.3,73.9,30.05,WSW,240,9.0,10.0,81,0.00,,SKC,0.00,VWS V13.00,2013-08-03 05:42:00,
2013-08-03 01:47:00,80.3,73.9,30.05,WSW,257,9.0,9.0,81,0.00,,SKC,0.00,VWS V13.00,2013-08-03 05:47:00,
2013-08-03 01:52:00,80.3,73.9,30.05,West,275,10.0,10.0,81,0.00,,SKC,0.00,VWS V13.00,2013-08-03 05:52:00,
2013-08-03 01:57:00,80.3,74.3,30.05,SW,223,5.0,5.0,82,0.00,,SKC,0.00,VWS V13.00,2013-08-03 05:57:00,
2013-08-03 02:02:00,80.2,74.2,30.05,West,259,5.0,6.0,82,0.00,,SKC,0.00,VWS V13.00,2013-08-03 06:02:00,
2013-08-03 02:07:00,80.2,74.2,30.05,WSW,257,4.0,7.0,82,0.00,,SKC,0.00,VWS V13.00,2013-08-03 06:07:00,
2013-08-03 02:12:00,80.2,74.2,30.05,SW,236,5.0,7.0,82,0.00,,SKC,0.00,VWS V13.00,2013-08-03 06:12:00,
2013-08-03 02:17:00,80.2,74.2,30.04,SSE,164,8.0,8.0,82,0.00,,SKC,0.00,VWS V13.00,2013-08-03 06:17:00,
2013-08-03 02:22:00,80.2,74.2,30.04,WSW,240,8.0,8.0,82,0.00,,SKC,0.00,VWS V13.00,2013-08-03 06:22:00,
2013-08-03 02:27:00,80.1,74.1,30.04,WSW,256,7.0,9.0,82,0.00,,SKC,0.00,VWS V13.00,2013-08-03 06:27:00,
2013-08-03 02:32:00,80.1,74.1,30.04,WSW,237,4.0,9.0,82,0.00,,SKC,0.00,VWS V13.00,2013-08-03 06:32:00,
2013-08-03 02:37:00,80.1,74.1,30.04,SW,226,4.0,8.0,82,0.00,,SKC,0.00,VWS V13.00,2013-08-03 06:37:00,
2013-08-03 02:42:00,80.0,74.0,30.04,SW,216,10.0,10.0,82,0.00,,SKC,0.00,VWS V13.00,2013-08-03 06:42:00,
2013-08-03 02:47:00,80.0,74.0,30.03,WSW,238,5.0,11.0,82,0.00,,SKC,0.00,VWS V13.00,2013-08-03 06:47:00,
2013-08-03 02:52:00,80.0,74.0,30.03,SSW,207,8.0,8.0,82,0.00,,SKC,0.00,VWS V13.00,2013-08-03 06:52:00,
2013-08-03 02:58:00,80.0,74.0,30.03,SW,227,11.0,11.0,82,0.00,,SKC,0.00,VWS V13.00,2013-08-03 06:58:00,
2013-08-03 03:02:00,80.0,74.0,30.03,WSW,238,3.0,7.0,82,0.00,,SKC,0.00,VWS V13.00,2013-08-03 07:02:00,
2013-08-03 03:07:00,79.9,73.9,30.03,WSW,240,8.0,10.0,82,0.00,,SKC,0.00,VWS V13.00,2013-08-03 07:07:00,
2013-08-03 03:12:00,79.9,73.9,30.03,SW,224,3.0,10.0,82,0.00,,SKC,0.00,VWS V13.00,2013-08-03 07:12:00,
2013-08-03 03:18:00,79.9,73.9,30.03,SW,225,11.0,11.0,82,0.00,,SKC,0.00,VWS V13.00,2013-08-03 07:18:00,
2013-08-03 03:22:00,79.9,73.9,30.03,SW,226,9.0,9.0,82,0.00,,SKC,0.00,VWS V13.00,2013-08-03 07:22:00,
2013-08-03 03:27:00,79.8,73.8,30.03,SSW,213,4.0,10.0,82,0.00,,SKC,0.00,VWS V13.00,2013-08-03 07:27:00,
2013-08-03 03:32:00,79.8,73.8,30.03,WSW,237,9.0,9.0,82,0.00,,SKC,0.00,VWS V13.00,2013-08-03 07:32:00,
2013-08-03 03:37:00,79.8,73.8,30.03,SW,236,7.0,7.0,82,0.00,,SKC,0.00,VWS V13.00,2013-08-03 07:37:00,
2013-08-03 03:42:00,79.8,73.8,30.03,SW,223,3.0,7.0,82,0.00,,SKC,0.00,VWS V13.00,2013-08-03 07:42:00,
2013-08-03 03:47:00,79.8,73.8,30.03,SW,227,7.0,12.0,82,0.00,,SKC,0.00,VWS V13.00,2013-08-03 07:47:00,
2013-08-03 03:52:00,79.8,73.8,30.04,WSW,252,7.0,9.0,82,0.00,,SKC,0.00,VWS V13.00,2013-08-03 07:52:00,
2013-08-03 03:57:00,79.7,73.7,30.04,SW,234,6.0,11.0,82,0.00,,SKC,0.00,VWS V13.00,2013-08-03 07:57:00,
2013-08-03 04:02:00,79.7,73.7,30.04,SW,223,4.0,8.0,82,0.00,,SKC,0.00,VWS V13.00,2013-08-03 08:02:00,
2013-08-03 04:07:00,79.7,73.7,30.04,SSW,204,8.0,8.0,82,0.00,,SKC,0.00,VWS V13.00,2013-08-03 08:07:00,
2013-08-03 04:12:00,79.7,73.7,30.04,SW,234,11.0,13.0,82,0.00,,SKC,0.00,VWS V13.00,2013-08-03 08:12:00,
2013-08-03 04:17:00,79.8,73.8,30.04,West,261,5.0,11.0,82,0.00,,SKC,0.00,VWS V13.00,2013-08-03 08:17:00,
2013-08-03 04:22:00,79.8,73.8,30.04,WSW,242,10.0,14.0,82,0.00,,SKC,0.00,VWS V13.00,2013-08-03 08:22:00,
2013-08-03 04:27:00,79.8,73.8,30.04,SSW,198,8.0,9.0,82,0.00,,SKC,0.00,VWS V13.00,2013-08-03 08:27:00,
2013-08-03 04:32:00,79.8,73.8,30.04,SW,219,5.0,8.0,82,0.00,,SKC,0.00,VWS V13.00,2013-08-03 08:32:00,
2013-08-03 04:37:00,79.8,73.8,30.04,South,181,7.0,9.0,82,0.00,,SKC,0.00,VWS V13.00,2013-08-03 08:37:00,
2013-08-03 04:42:00,79.7,73.7,30.04,West,265,13.0,13.0,82,0.00,,SKC,0.00,VWS V13.00,2013-08-03 08:42:00,
2013-08-03 04:47:00,79.7,73.7,30.04,WSW,240,9.0,10.0,82,0.00,,SKC,0.00,VWS V13.00,2013-08-03 08:47:00,
2013-08-03 04:52:00,79.6,73.6,30.04,SW,218,5.0,7.0,82,0.00,,SKC,0.00,VWS V13.00,2013-08-03 08:52:00,
2013-08-03 04:57:00,79.6,73.6,30.04,South,188,7.0,11.0,82,0.00,,SKC,0.00,VWS V13.00,2013-08-03 08:57:00,
2013-08-03 05:02:00,79.5,73.5,30.04,SW,232,6.0,9.0,82,0.00,,SKC,0.00,VWS V13.00,2013-08-03 09:02:00,
2013-08-03 05:07:00,79.5,73.5,30.04,WSW,241,2.0,8.0,82,0.00,,SKC,0.00,VWS V13.00,2013-08-03 09:07:00,
2013-08-03 05:12:00,79.5,73.5,30.04,WSW,257,6.0,9.0,82,0.00,,SKC,0.00,VWS V13.00,2013-08-03 09:12:00,
2013-08-03 05:17:00,79.5,73.5,30.04,WSW,244,5.0,7.0,82,0.00,,SKC,0.00,VWS V13.00,2013-08-03 09:17:00,
2013-08-03 05:22:00,79.5,73.5,30.04,WSW,239,4.0,9.0,82,0.00,,SKC,0.00,VWS V13.00,2013-08-03 09:22:00,
2013-08-03 05:27:00,79.5,73.5,30.04,SSW,211,6.0,7.0,82,0.00,,SKC,0.00,VWS V13.00,2013-08-03 09:27:00,
2013-08-03 05:32:00,79.4,73.4,30.05,SW,229,11.0,11.0,82,0.00,,SKC,0.00,VWS V13.00,2013-08-03 09:32:00,
2013-08-03 05:37:00,79.4,73.4,30.05,SW,236,7.0,8.0,82,0.00,,SKC,0.00,VWS V13.00,2013-08-03 09:37:00,
2013-08-03 05:42:00,79.4,73.4,30.05,SW,222,7.0,8.0,82,0.00,,SKC,0.00,VWS V13.00,2013-08-03 09:42:00,
2013-08-03 05:47:00,79.4,73.4,30.05,SW,223,5.0,6.0,82,0.00,,SKC,0.00,VWS V13.00,2013-08-03 09:47:00,
2013-08-03 05:52:00,79.4,73.4,30.05,SW,232,8.0,10.0,82,0.00,,SKC,0.00,VWS V13.00,2013-08-03 09:52:00,
2013-08-03 05:57:00,79.3,73.3,30.05,SSW,213,4.0,8.0,82,0.00,,SKC,0.00,VWS V13.00,2013-08-03 09:57:00,
2013-08-03 06:02:00,79.3,73.3,30.05,SSW,213,6.0,7.0,82,0.00,,SKC,0.00,VWS V13.00,2013-08-03 10:02:00,
2013-08-03 06:07:00,79.3,73.3,30.05,WSW,238,4.0,6.0,82,0.00,,SKC,0.00,VWS V13.00,2013-08-03 10:07:00,
2013-08-03 06:12:00,79.2,73.2,30.05,SSW,192,2.0,7.0,82,0.00,,SKC,0.00,VWS V13.00,2013-08-03 10:12:00,
2013-08-03 06:17:00,79.2,73.2,30.05,SW,225,2.0,6.0,82,0.00,,SKC,0.00,VWS V13.00,2013-08-03 10:17:00,
2013-08-03 06:22:00,79.2,73.2,30.05,SSW,209,7.0,7.0,82,0.00,,SKC,0.00,VWS V13.00,2013-08-03 10:22:00,
2013-08-03 06:27:00,79.3,73.3,30.05,WSW,246,4.0,6.0,82,0.00,,SKC,0.00,VWS V13.00,2013-08-03 10:27:00,
2013-08-03 06:32:00,79.3,73.3,30.05,SW,229,9.0,9.0,82,0.00,,SKC,0.00,VWS V13.00,2013-08-03 10:32:00,
2013-08-03 06:37:00,79.4,73.4,30.05,SW,225,4.0,9.0,82,0.00,,SKC,0.00,VWS V13.00,2013-08-03 10:37:00,
2013-08-03 06:40:00,79.4,73.4,30.05,SW,225,5.0,10.0,82,0.00,,---,0.00,VWS V13.00,2013-08-03 10:40:00,
2013-08-03 06:42:00,79.4,73.4,30.05,SW,224,8.0,9.0,82,0.00,,SKC,0.00,VWS V13.00,2013-08-03 10:42:00,
2013-08-03 06:45:00,79.4,73.8,30.05,SW,225,5.0,10.0,83,0.00,,---,0.00,VWS V13.00,2013-08-03 10:45:00,
2013-08-03 06:47:00,79.4,73.4,30.05,WSW,244,3.0,7.0,82,0.00,,SKC,0.00,VWS V13.00,2013-08-03 10:47:00,
2013-08-03 06:50:00,79.5,73.9,30.05,SW,225,5.0,10.0,83,0.00,,---,0.00,VWS V13.00,2013-08-03 10:50:00,
2013-08-03 06:52:00,79.5,73.9,30.05,WSW,238,5.0,7.0,83,0.00,,SKC,0.00,VWS V13.00,2013-08-03 10:52:00,
2013-08-03 06:55:00,79.6,74.0,30.06,SW,225,5.0,10.0,83,0.00,,---,0.00,VWS V13.00,2013-08-03 10:55:00,
2013-08-03 06:57:00,79.6,74.0,30.06,SW,228,6.0,8.0,83,0.00,,SKC,0.00,VWS V13.00,2013-08-03 10:57:00,
2013-08-03 07:00:00,79.6,74.0,30.05,WSW,248,4.0,8.0,83,0.00,,---,0.00,VWS V13.00,2013-08-03 11:00:00,
2013-08-03 07:02:00,79.7,74.1,30.05,WSW,248,3.0,8.0,83,0.00,,SKC,0.00,VWS V13.00,2013-08-03 11:02:00,
2013-08-03 07:05:00,79.7,73.7,30.06,SW,225,5.0,10.0,82,0.00,,---,0.00,VWS V13.00,2013-08-03 11:05:00,
2013-08-03 07:07:00,79.7,74.1,30.06,SW,236,8.0,8.0,83,0.00,,SKC,0.00,VWS V13.00,2013-08-03 11:07:00,
2013-08-03 07:10:00,79.7,74.1,30.06,SW,225,5.0,9.0,83,0.00,,---,0.00,VWS V13.00,2013-08-03 11:10:00,
2013-08-03 07:12:00,79.7,74.1,30.06,SSW,212,6.0,7.0,83,0.00,,SKC,0.00,VWS V13.00,2013-08-03 11:12:00,
2013-08-03 07:15:00,79.8,74.2,30.06,WSW,248,6.0,9.0,83,0.00,,---,0.00,VWS V13.00,2013-08-03 11:15:00,
2013-08-03 07:17:00,79.8,74.2,30.06,WSW,248,6.0,9.0,83,0.00,,SKC,0.00,VWS V13.00,2013-08-03 11:17:00,
2013-08-03 07:20:00,79.8,74.2,30.06,WSW,248,5.0,9.0,83,0.00,,---,0.00,VWS V13.00,2013-08-03 11:20:00,
2013-08-03 07:22:00,79.8,74.2,30.06,WSW,238,6.0,8.0,83,0.00,,SKC,0.00,VWS V13.00,2013-08-03 11:22:00,
2013-08-03 07:25:00,79.8,74.2,30.06,WSW,248,5.0,10.0,83,0.00,,---,0.00,VWS V13.00,2013-08-03 11:25:00,
2013-08-03 07:27:00,79.8,74.2,30.06,SW,233,9.0,9.0,83,0.00,,SKC,0.00,VWS V13.00,2013-08-03 11:27:00,
2013-08-03 07:30:00,79.8,74.2,30.06,SW,225,6.0,10.0,83,0.00,,---,0.00,VWS V13.00,2013-08-03 11:30:00,
2013-08-03 07:32:00,79.8,74.2,30.06,WSW,251,5.0,7.0,83,0.00,,SKC,0.00,VWS V13.00,2013-08-03 11:32:00,
2013-08-03 07:35:00,79.8,74.2,30.06,WSW,248,5.0,11.0,83,0.00,,---,0.00,VWS V13.00,2013-08-03 11:35:00,
2013-08-03 07:37:00,79.9,74.3,30.06,SW,214,5.0,8.0,83,0.00,,SKC,0.00,VWS V13.00,2013-08-03 11:37:00,
2013-08-03 07:40:00,79.9,74.3,30.06,WSW,248,5.0,8.0,83,0.00,,---,0.00,VWS V13.00,2013-08-03 11:40:00,
2013-08-03 07:42:00,80.0,74.4,30.06,SW,229,4.0,8.0,83,0.00,,SKC,0.00,VWS V13.00,2013-08-03 11:42:00,
2013-08-03 07:45:00,80.0,74.4,30.06,SW,225,4.0,8.0,83,0.00,,---,0.00,VWS V13.00,2013-08-03 11:45:00,
2013-08-03 07:47:00,80.1,74.5,30.06,SW,217,9.0,9.0,83,0.00,,SKC,0.00,VWS V13.00,2013-08-03 11:47:00,
2013-08-03 07:50:00,80.1,74.5,30.06,WSW,248,5.0,11.0,83,0.00,,---,0.00,VWS V13.00,2013-08-03 11:50:00,
2013-08-03 07:52:00,80.2,74.6,30.06,SW,230,8.0,10.0,83,0.00,,SKC,0.00,VWS V13.00,2013-08-03 11:52:00,
2013-08-03 07:55:00,80.2,74.6,30.06,SW,225,5.0,10.0,83,0.00,,---,0.00,VWS V13.00,2013-08-03 11:55:00,
2013-08-03 07:57:00,80.3,74.7,30.06,SW,225,4.0,8.0,83,0.00,,SKC,0.00,VWS V13.00,2013-08-03 11:57:00,
2013-08-03 08:00:00,80.4,74.8,30.06,WSW,248,5.0,10.0,83,0.00,,---,0.00,VWS V13.00,2013-08-03 12:00:00,
2013-08-03 08:02:00,80.5,74.9,30.06,SW,216,5.0,10.0,83,0.00,,SKC,0.00,VWS V13.00,2013-08-03 12:02:00,
2013-08-03 08:05:00,80.5,74.9,30.06,WSW,248,5.0,10.0,83,0.00,,---,0.00,VWS V13.00,2013-08-03 12:05:00,
2013-08-03 08:07:00,80.6,75.0,30.06,WSW,256,2.0,5.0,83,0.00,,SKC,0.00,VWS V13.00,2013-08-03 12:07:00,
2013-08-03 08:10:00,80.6,75.0,30.06,WSW,248,5.0,9.0,83,0.00,,---,0.00,VWS V13.00,2013-08-03 12:10:00,
2013-08-03 08:12:00,80.7,75.1,30.07,SW,224,7.0,9.0,83,0.00,,SKC,0.00,VWS V13.00,2013-08-03 12:12:00,
2013-08-03 08:15:00,80.7,75.1,30.07,SW,225,5.0,10.0,83,0.00,,---,0.00,VWS V13.00,2013-08-03 12:15:00,
2013-08-03 08:17:00,80.8,75.2,30.07,WSW,243,3.0,9.0,83,0.00,,SKC,0.00,VWS V13.00,2013-08-03 12:17:00,
2013-08-03 08:20:00,80.9,75.3,30.07,SW,225,5.0,10.0,83,0.00,,---,0.00,VWS V13.00,2013-08-03 12:20:00,
2013-08-03 08:22:00,81.0,75.3,30.07,SW,216,3.0,8.0,83,0.00,,SKC,0.00,VWS V13.00,2013-08-03 12:22:00,
2013-08-03 08:25:00,81.0,75.3,30.07,SW,225,5.0,9.0,83,0.00,,---,0.00,VWS V13.00,2013-08-03 12:25:00,
2013-08-03 08:27:00,81.1,75.4,30.07,SW,230,4.0,9.0,83,0.00,,SKC,0.00,VWS V13.00,2013-08-03 12:27:00,
2013-08-03 08:30:00,81.1,75.4,30.07,WSW,248,4.0,9.0,83,0.00,,---,0.00,VWS V13.00,2013-08-03 12:30:00,
2013-08-03 08:32:00,81.2,75.6,30.07,SSW,209,8.0,9.0,83,0.00,,SKC,0.00,VWS V13.00,2013-08-03 12:32:00,
2013-08-03 08:35:00,81.2,75.6,30.07,SW,225,6.0,9.0,83,0.00,,---,0.00,VWS V13.00,2013-08-03 12:35:00,
2013-08-03 08:37:00,81.3,75.7,30.07,SW,226,3.0,6.0,83,0.00,,SKC,0.00,VWS V13.00,2013-08-03 12:37:00,
2013-08-03 08:40:00,81.3,75.7,30.07,SW,225,5.0,10.0,83,0.00,,---,0.00,VWS V13.00,2013-08-03 12:40:00,
2013-08-03 08:43:00,81.4,75.7,30.07,SSW,212,7.0,7.0,83,0.00,,SKC,0.00,VWS V13.00,2013-08-03 12:43:00,
2013-08-03 08:45:00,81.4,75.7,30.07,SW,225,6.0,12.0,83,0.00,,---,0.00,VWS V13.00,2013-08-03 12:45:00,
2013-08-03 08:47:00,81.4,75.7,30.07,WSW,245,4.0,10.0,83,0.00,,SKC,0.00,VWS V13.00,2013-08-03 12:47:00,
2013-08-03 08:50:00,81.4,75.7,30.07,SW,225,5.0,10.0,83,0.00,,---,0.00,VWS V13.00,2013-08-03 12:50:00,
2013-08-03 08:53:00,81.5,75.8,30.06,WSW,237,7.0,7.0,83,0.00,,SKC,0.00,VWS V13.00,2013-08-03 12:53:00,
2013-08-03 08:55:00,81.6,75.9,30.07,WSW,248,6.0,10.0,83,0.00,,---,0.00,VWS V13.00,2013-08-03 12:55:00,
2013-08-03 08:58:00,81.6,75.9,30.07,SSW,211,8.0,9.0,83,0.00,,SKC,0.00,VWS V13.00,2013-08-03 12:58:00,
2013-08-03 09:00:00,81.6,75.9,30.07,WSW,248,7.0,12.0,83,0.00,,---,0.00,VWS V13.00,2013-08-03 13:00:00,
2013-08-03 09:03:00,81.6,75.9,30.06,SW,222,7.0,9.0,83,0.00,,SKC,0.00,VWS V13.00,2013-08-03 13:03:00,
2013-08-03 09:05:00,81.6,75.6,30.06,WSW,248,8.0,12.0,82,0.00,,---,0.00,VWS V13.00,2013-08-03 13:05:00,
2013-08-03 09:07:00,81.5,75.5,30.06,SW,225,6.0,8.0,82,0.00,,SKC,0.00,VWS V13.00,2013-08-03 13:07:00,
2013-08-03 09:10:00,81.6,75.9,30.06,WSW,248,7.0,13.0,83,0.00,,---,0.00,VWS V13.00,2013-08-03 13:10:00,
2013-08-03 09:12:00,81.6,75.9,30.06,West,263,8.0,11.0,83,0.00,,SKC,0.00,VWS V13.00,2013-08-03 13:12:00,
2013-08-03 09:15:00,81.7,76.0,30.06,WSW,248,7.0,11.0,83,0.00,,---,0.00,VWS V13.00,2013-08-03 13:15:00,
2013-08-03 09:17:00,81.8,76.1,30.06,WSW,249,9.0,13.0,83,0.00,,SKC,0.00,VWS V13.00,2013-08-03 13:17:00,
2013-08-03 09:20:00,81.8,75.8,30.06,WSW,248,7.0,13.0,82,0.00,,---,0.00,VWS V13.00,2013-08-03 13:20:00,
2013-08-03 09:22:00,81.8,75.8,30.06,WSW,237,4.0,6.0,82,0.00,,SKC,0.00,VWS V13.00,2013-08-03 13:22:00,
2013-08-03 09:25:00,81.8,75.8,30.06,SW,225,5.0,10.0,82,0.00,,---,0.00,VWS V13.00,2013-08-03 13:25:00,
2013-08-03 09:27:00,82.0,76.0,30.06,SSW,207,2.0,9.0,82,0.00,,SKC,0.00,VWS V13.00,2013-08-03 13:27:00,
2013-08-03 09:30:00,82.0,76.0,30.06,SW,225,5.0,11.0,82,0.00,,---,0.00,VWS V13.00,2013-08-03 13:30:00,
2013-08-03 09:32:00,82.2,76.2,30.06,SW,219,9.0,10.0,82,0.00,,SKC,0.00,VWS V13.00,2013-08-03 13:32:00,
2013-08-03 09:35:00,82.3,76.3,30.06,SW,225,6.0,12.0,82,0.00,,---,0.00,VWS V13.00,2013-08-03 13:35:00,
2013-08-03 09:37:00,82.3,76.3,30.06,South,189,7.0,8.0,82,0.00,,SKC,0.00,VWS V13.00,2013-08-03 13:37:00,
2013-08-03 09:40:00,82.4,76.4,30.06,SW,225,5.0,11.0,82,0.00,,---,0.00,VWS V13.00,2013-08-03 13:40:00,
2013-08-03 09:42:00,82.5,76.4,30.06,SSW,213,2.0,10.0,82,0.00,,SKC,0.00,VWS V13.00,2013-08-03 13:42:00,
2013-08-03 09:45:00,82.6,76.6,30.06,SW,225,6.0,13.0,82,0.00,,---,0.00,VWS V13.00,2013-08-03 13:45:00,
2013-08-03 09:48:00,82.8,76.8,30.06,West,273,9.0,10.0,82,0.00,,SKC,0.00,VWS V13.00,2013-08-03 13:48:00,
2013-08-03 09:50:00,82.9,76.8,30.06,SW,225,6.0,11.0,82,0.00,,---,0.00,VWS V13.00,2013-08-03 13:50:00,
2013-08-03 09:53:00,82.9,76.8,30.06,SW,217,3.0,9.0,82,0.00,,SKC,0.00,VWS V13.00,2013-08-03 13:53:00,
2013-08-03 09:55:00,82.9,76.8,30.06,SW,225,5.0,11.0,82,0.00,,---,0.00,VWS V13.00,2013-08-03 13:55:00,
2013-08-03 09:58:00,82.9,76.8,30.06,SSW,207,4.0,10.0,82,0.00,,SKC,0.00,VWS V13.00,2013-08-03 13:58:00,
2013-08-03 10:00:00,82.9,76.8,30.05,SW,225,5.0,12.0,82,0.00,,---,0.00,VWS V13.00,2013-08-03 14:00:00,
2013-08-03 10:03:00,82.9,76.8,30.06,SW,236,6.0,6.0,82,0.00,,SKC,0.00,VWS V13.00,2013-08-03 14:03:00,
2013-08-03 10:05:00,82.9,76.8,30.06,SW,225,6.0,10.0,82,0.00,,---,0.00,VWS V13.00,2013-08-03 14:05:00,
2013-08-03 10:08:00,83.0,76.9,30.06,SW,229,12.0,12.0,82,0.00,,SKC,0.00,VWS V13.00,2013-08-03 14:08:00,
2013-08-03 10:10:00,82.9,76.8,30.06,SW,225,7.0,12.0,82,0.00,,---,0.00,VWS V13.00,2013-08-03 14:10:00,
2013-08-03 10:13:00,83.0,76.9,30.06,SW,215,7.0,11.0,82,0.00,,SKC,0.00,VWS V13.00,2013-08-03 14:13:00,
2013-08-03 10:15:00,83.0,76.9,30.06,SW,225,7.0,12.0,82,0.00,,---,0.00,VWS V13.00,2013-08-03 14:15:00,
2013-08-03 10:17:00,83.1,77.0,30.06,WSW,238,7.0,11.0,82,0.00,,SKC,0.00,VWS V13.00,2013-08-03 14:17:00,
2013-08-03 10:20:00,83.2,77.1,30.06,SW,225,7.0,11.0,82,0.00,,---,0.00,VWS V13.00,2013-08-03 14:20:00,
2013-08-03 10:23:00,83.3,77.2,30.06,WSW,254,7.0,9.0,82,0.00,,SKC,0.00,VWS V13.00,2013-08-03 14:23:00,
2013-08-03 10:25:00,83.4,77.3,30.06,SW,225,7.0,11.0,82,0.00,,---,0.00,VWS V13.00,2013-08-03 14:25:00,
2013-08-03 10:28:00,83.6,77.5,30.06,SSW,207,10.0,11.0,82,0.00,,SKC,0.00,VWS V13.00,2013-08-03 14:28:00,
2013-08-03 10:30:00,83.6,77.5,30.06,SW,225,7.0,12.0,82,0.00,,---,0.00,VWS V13.00,2013-08-03 14:30:00,
2013-08-03 10:33:00,83.7,77.6,30.05,SSW,209,9.0,12.0,82,0.00,,SKC,0.00,VWS V13.00,2013-08-03 14:33:00,
2013-08-03 10:35:00,83.7,77.6,30.06,SSW,202,6.0,12.0,82,0.00,,---,0.00,VWS V13.00,2013-08-03 14:35:00,
2013-08-03 10:38:00,83.8,77.7,30.05,SSE,168,5.0,6.0,82,0.00,,SKC,0.00,VWS V13.00,2013-08-03 14:38:00,
2013-08-03 10:40:00,83.8,77.7,30.05,SW,225,5.0,9.0,82,0.00,,---,0.00,VWS V13.00,2013-08-03 14:40:00,
2013-08-03 10:42:00,83.9,77.8,30.05,SW,216,4.0,8.0,82,0.00,,SKC,0.00,VWS V13.00,2013-08-03 14:42:00,
2013-08-03 10:45:00,83.9,77.8,30.05,SSW,202,5.0,10.0,82,0.00,,---,0.00,VWS V13.00,2013-08-03 14:45:00,
2013-08-03 10:47:00,84.0,77.5,30.05,SW,217,3.0,9.0,81,0.00,,SKC,0.00,VWS V13.00,2013-08-03 14:47:00,
2013-08-03 10:50:00,84.1,77.6,30.05,SW,225,6.0,11.0,81,0.00,,---,0.00,VWS V13.00,2013-08-03 14:50:00,
2013-08-03 10:52:00,84.0,77.5,30.05,SW,221,5.0,10.0,81,0.00,,SKC,0.00,VWS V13.00,2013-08-03 14:52:00,
2013-08-03 10:55:00,84.0,77.5,30.05,SW,225,6.0,12.0,81,0.00,,---,0.00,VWS V13.00,2013-08-03 14:55:00,
2013-08-03 10:58:00,84.2,77.7,30.05,SSW,209,3.0,11.0,81,0.00,,SKC,0.00,VWS V13.00,2013-08-03 14:58:00,
2013-08-03 11:00:00,84.3,77.8,30.05,SW,225,5.0,11.0,81,0.00,,---,0.00,VWS V13.00,2013-08-03 15:00:00,
2013-08-03 11:03:00,84.4,77.9,30.05,SW,232,7.0,7.0,81,0.00,,SKC,0.00,VWS V13.00,2013-08-03 15:03:00,
2013-08-03 11:05:00,84.5,78.0,30.05,SW,225,5.0,10.0,81,0.00,,---,0.00,VWS V13.00,2013-08-03 15:05:00,
2013-08-03 11:08:00,84.4,77.9,30.05,WSW,237,8.0,8.0,81,0.00,,SKC,0.00,VWS V13.00,2013-08-03 15:08:00,
2013-08-03 11:10:00,84.3,77.8,30.05,SW,225,6.0,11.0,81,0.00,,---,0.00,VWS V13.00,2013-08-03 15:10:00,
2013-08-03 11:12:00,84.2,77.7,30.05,SSW,207,2.0,9.0,81,0.00,,SKC,0.00,VWS V13.00,2013-08-03 15:12:00,
2013-08-03 11:15:00,84.3,77.8,30.05,SSW,202,6.0,12.0,81,0.00,,---,0.00,VWS V13.00,2013-08-03 15:15:00,
2013-08-03 11:18:00,84.5,78.0,30.05,SSW,209,8.0,11.0,81,0.00,,SKC,0.00,VWS V13.00,2013-08-03 15:18:00,
2013-08-03 11:20:00,84.5,78.0,30.05,SSW,202,5.0,14.0,81,0.00,,---,0.00,VWS V13.00,2013-08-03 15:20:00,
2013-08-03 11:23:00,84.7,78.2,30.05,South,182,3.0,9.0,81,0.00,,SKC,0.00,VWS V13.00,2013-08-03 15:23:00,
2013-08-03 11:25:00,84.8,78.3,30.04,SW,225,5.0,12.0,81,0.00,,---,0.00,VWS V13.00,2013-08-03 15:25:00,
2013-08-03 11:28:00,85.0,78.5,30.04,SW,225,3.0,7.0,81,0.00,,SKC,0.00,VWS V13.00,2013-08-03 15:28:00,
2013-08-03 11:30:00,85.2,78.7,30.04,SSW,202,5.0,11.0,81,0.00,,---,0.00,VWS V13.00,2013-08-03 15:30:00,
2013-08-03 11:33:00,85.4,78.9,30.04,SSE,155,1.0,8.0,81,0.00,,SKC,0.00,VWS V13.00,2013-08-03 15:33:00,
2013-08-03 11:35:00,85.5,79.0,30.04,SSW,202,6.0,14.0,81,0.00,,---,0.00,VWS V13.00,2013-08-03 15:35:00,
2013-08-03 11:37:00,85.7,79.2,30.04,South,178,6.0,12.0,81,0.00,,SKC,0.00,VWS V13.00,2013-08-03 15:37:00,
2013-08-03 11:40:00,85.7,79.2,30.04,SSW,202,7.0,15.0,81,0.00,,---,0.00,VWS V13.00,2013-08-03 15:40:00,
2013-08-03 11:43:00,85.7,78.8,30.04,SW,229,7.0,9.0,80,0.00,,SKC,0.00,VWS V13.00,2013-08-03 15:43:00,
2013-08-03 11:45:00,85.7,78.8,30.04,SSW,202,6.0,14.0,80,0.00,,---,0.00,VWS V13.00,2013-08-03 15:45:00,
2013-08-03 11:48:00,85.6,78.7,30.04,SW,221,4.0,8.0,80,0.00,,SKC,0.00,VWS V13.00,2013-08-03 15:48:00,
2013-08-03 11:50:00,85.7,78.8,30.04,SSW,202,7.0,14.0,80,0.00,,---,0.00,VWS V13.00,2013-08-03 15:50:00,
2013-08-03 11:53:00,85.6,78.7,30.04,SSW,196,3.0,13.0,80,0.00,,SKC,0.00,VWS V13.00,2013-08-03 15:53:00,
2013-08-03 11:55:00,85.6,78.7,30.04,SSW,202,7.0,16.0,80,0.00,,---,0.00,VWS V13.00,2013-08-03 15:55:00,
2013-08-03 11:58:00,85.4,78.5,30.04,SW,221,10.0,11.0,80,0.00,,SKC,0.00,VWS V13.00,2013-08-03 15:58:00,
2013-08-03 12:00:00,85.3,78.4,30.04,SSW,202,6.0,11.0,80,0.00,,---,0.00,VWS V13.00,2013-08-03 16:00:00,
2013-08-03 12:05:00,85.1,78.2,30.04,SSW,202,6.0,15.0,80,0.00,,---,0.00,VWS V13.00,2013-08-03 16:05:00,
2013-08-03 12:10:00,85.1,78.2,30.04,SSW,202,7.0,13.0,80,0.00,,---,0.00,VWS V13.00,2013-08-03 16:10:00,
2013-08-03 12:15:00,85.2,78.3,30.03,SSW,202,6.0,14.0,80,0.00,,---,0.00,VWS V13.00,2013-08-03 16:15:00,
2013-08-03 12:20:00,85.1,78.2,30.04,SW,225,6.0,12.0,80,0.00,,---,0.00,VWS V13.00,2013-08-03 16:20:00,
2013-08-03 12:25:00,85.3,78.4,30.03,SSW,202,5.0,13.0,80,0.00,,---,0.00,VWS V13.00,2013-08-03 16:25:00,
2013-08-03 12:30:00,85.4,78.5,30.03,SSW,202,8.0,14.0,80,0.00,,---,0.00,VWS V13.00,2013-08-03 16:30:00,
2013-08-03 12:45:00,85.2,78.3,30.04,SW,220,9.0,11.0,80,0.00,,---,0.00,VWS V13.00,2013-08-03 16:45:00,
2013-08-03 12:50:00,85.1,78.2,30.03,SW,217,0.0,9.0,80,0.00,,---,0.00,VWS V13.00,2013-08-03 16:50:00,
2013-08-03 13:01:00,85.6,78.7,30.03,SSW,202,6.0,12.0,80,0.00,,---,0.00,VWS V13.00,2013-08-03 17:01:00,
2013-08-03 13:06:00,86.0,79.1,30.04,SSW,211,5.0,6.0,80,0.00,,---,0.00,VWS V13.00,2013-08-03 17:06:00,
2013-08-03 13:12:00,86.0,79.1,30.04,SSW,207,3.0,3.0,80,0.00,,---,0.00,VWS V13.00,2013-08-03 17:12:00,
2013-08-03 13:30:00,86.1,78.8,30.04,SSW,202,6.0,13.0,79,0.00,,---,0.00,VWS V13.00,2013-08-03 17:30:00,
2013-08-03 14:00:00,86.5,79.2,30.03,SSW,202,7.0,14.0,79,0.00,,---,0.00,VWS V13.00,2013-08-03 18:00:00,
2013-08-03 14:30:00,86.6,78.9,30.02,SSW,202,6.0,14.0,78,0.00,,---,0.00,VWS V13.00,2013-08-03 18:30:00,
2013-08-03 15:00:00,86.6,78.9,30.01,SSW,202,6.0,17.0,78,0.00,,---,0.00,VWS V13.00,2013-08-03 19:00:00,
2013-08-03 15:30:00,85.6,78.3,30.00,SSW,202,6.0,16.0,79,0.00,,---,0.00,VWS V13.00,2013-08-03 19:30:00,
2013-08-03 16:00:00,85.0,77.8,29.98,SSW,202,6.0,17.0,79,0.00,,---,0.00,VWS V13.00,2013-08-03 20:00:00,
2013-08-03 16:30:00,83.5,76.3,29.98,South,180,6.0,16.0,79,0.00,,---,0.00,VWS V13.00,2013-08-03 20:30:00,
2013-08-03 17:00:00,83.3,76.1,29.98,SSW,202,5.0,15.0,79,0.00,,---,0.00,VWS V13.00,2013-08-03 21:00:00,
2013-08-03 17:37:00,84.4,77.2,29.97,SSW,202,5.0,13.0,79,0.00,,---,0.00,VWS V13.00,2013-08-03 21:37:00,
2013-08-03 17:42:00,84.5,77.3,29.97,SW,222,3.0,7.0,79,0.00,,---,0.00,VWS V13.00,2013-08-03 21:42:00,
2013-08-03 17:47:00,84.5,77.3,29.97,SSW,194,0.0,11.0,79,0.00,,---,0.00,VWS V13.00,2013-08-03 21:47:00,
2013-08-03 17:52:00,84.5,77.3,29.97,SW,215,6.0,13.0,79,0.00,,---,0.00,VWS V13.00,2013-08-03 21:52:00,
2013-08-03 17:57:00,84.4,77.2,29.96,South,182,6.0,15.0,79,0.00,,---,0.00,VWS V13.00,2013-08-03 21:57:00,
2013-08-03 18:02:00,84.2,77.0,29.96,SSE,163,8.0,10.0,79,0.00,,---,0.00,VWS V13.00,2013-08-03 22:02:00,
2013-08-03 18:07:00,84.0,76.8,29.97,SSE,157,1.0,11.0,79,0.00,,---,0.00,VWS V13.00,2013-08-03 22:07:00,
2013-08-03 18:12:00,83.9,76.7,29.97,SSW,202,4.0,11.0,79,0.00,,---,0.00,VWS V13.00,2013-08-03 22:12:00,
2013-08-03 18:17:00,83.8,76.6,29.96,SSW,202,5.0,11.0,79,0.00,,---,0.00,VWS V13.00,2013-08-03 22:17:00,
2013-08-03 18:22:00,83.6,76.4,29.96,SSW,202,2.0,11.0,79,0.00,,---,0.00,VWS V13.00,2013-08-03 22:22:00,
2013-08-03 18:27:00,83.6,76.4,29.96,SW,232,7.0,11.0,79,0.00,,---,0.00,VWS V13.00,2013-08-03 22:27:00,
2013-08-03 18:32:00,83.6,76.4,29.96,SSW,205,3.0,7.0,79,0.00,,---,0.00,VWS V13.00,2013-08-03 22:32:00,
2013-08-03 18:37:00,83.5,76.7,29.96,South,186,5.0,8.0,80,0.00,,---,0.00,VWS V13.00,2013-08-03 22:37:00,
2013-08-03 18:42:00,83.4,76.2,29.96,South,182,8.0,10.0,79,0.00,,---,0.00,VWS V13.00,2013-08-03 22:42:00,
2013-08-03 18:47:00,83.3,76.1,29.96,SSW,210,4.0,11.0,79,0.00,,---,0.00,VWS V13.00,2013-08-03 22:47:00,
2013-08-03 18:52:00,83.2,76.0,29.96,SW,234,9.0,11.0,79,0.00,,---,0.00,VWS V13.00,2013-08-03 22:52:00,
2013-08-03 18:57:00,83.0,75.8,29.96,South,183,0.0,11.0,79,0.00,,---,0.00,VWS V13.00,2013-08-03 22:57:00,
2013-08-03 19:02:00,82.8,75.6,29.96,South,188,8.0,9.0,79,0.00,,---,0.00,VWS V13.00,2013-08-03 23:02:00,
2013-08-03 19:07:00,82.7,75.9,29.96,SSW,203,3.0,11.0,80,0.00,,---,0.00,VWS V13.00,2013-08-03 23:07:00,
2013-08-03 19:12:00,82.6,75.4,29.96,SSW,192,8.0,11.0,79,0.00,,---,0.00,VWS V13.00,2013-08-03 23:12:00,
2013-08-03 19:17:00,82.5,75.3,29.96,SW,219,4.0,11.0,79,0.00,,---,0.00,VWS V13.00,2013-08-03 23:17:00,
2013-08-03 19:22:00,82.3,75.5,29.96,South,174,6.0,11.0,80,0.00,,---,0.00,VWS V13.00,2013-08-03 23:22:00,
2013-08-03 19:27:00,82.2,75.4,29.95,SSW,196,5.0,11.0,80,0.00,,---,0.00,VWS V13.00,2013-08-03 23:27:00,
2013-08-03 19:32:00,82.0,75.2,29.95,South,170,2.0,6.0,80,0.00,,---,0.00,VWS V13.00,2013-08-03 23:32:00,
2013-08-03 19:37:00,81.9,75.1,29.96,SSW,208,6.0,9.0,80,0.00,,---,0.00,VWS V13.00,2013-08-03 23:37:00,
2013-08-03 19:42:00,81.8,75.0,29.95,SW,215,5.0,9.0,80,0.00,,---,0.00,VWS V13.00,2013-08-03 23:42:00,
2013-08-03 19:47:00,81.8,75.0,29.95,SSW,196,3.0,9.0,80,0.00,,---,0.00,VWS V13.00,2013-08-03 23:47:00,
2013-08-03 19:52:00,81.8,75.0,29.95,SSW,192,4.0,9.0,80,0.00,,---,0.00,VWS V13.00,2013-08-03 23:52:00,
2013-08-03 19:57:00,81.7,74.9,29.95,SSW,201,6.0,10.0,80,0.00,,---,0.00,VWS V13.00,2013-08-03 23:57:00,
2013-08-03 20:02:00,81.6,74.8,29.94,South,178,2.0,7.0,80,0.00,,---,0.00,VWS V13.00,2013-08-04 00:02:00,
2013-08-03 20:07:00,81.4,74.6,29.94,SSW,192,6.0,9.0,80,0.00,,---,0.00,VWS V13.00,2013-08-04 00:07:00,
2013-08-03 20:12:00,81.2,74.4,29.95,SW,220,6.0,10.0,80,0.00,,---,0.00,VWS V13.00,2013-08-04 00:12:00,
2013-08-03 20:17:00,81.1,74.3,29.95,SSW,198,2.0,11.0,80,0.00,,---,0.00,VWS V13.00,2013-08-04 00:17:00,
2013-08-03 20:22:00,80.9,74.2,29.95,SSW,200,3.0,11.0,80,0.00,,---,0.00,VWS V13.00,2013-08-04 00:22:00,
2013-08-03 20:27:00,80.7,74.0,29.95,South,183,5.0,11.0,80,0.00,,---,0.00,VWS V13.00,2013-08-04 00:27:00,
2013-08-03 20:32:00,80.5,73.8,29.95,SSW,197,5.0,7.0,80,0.00,,---,0.00,VWS V13.00,2013-08-04 00:32:00,
2013-08-03 20:37:00,80.5,73.8,29.95,SSW,213,3.0,10.0,80,0.00,,---,0.00,VWS V13.00,2013-08-04 00:37:00,
2013-08-03 20:42:00,80.4,73.7,29.95,SSW,194,5.0,10.0,80,0.00,,---,0.00,VWS V13.00,2013-08-04 00:42:00,
2013-08-03 20:47:00,80.4,73.7,29.95,South,178,2.0,10.0,80,0.00,,---,0.00,VWS V13.00,2013-08-04 00:47:00,
2013-08-03 20:52:00,80.4,73.7,29.95,SSW,207,1.0,10.0,80,0.00,,---,0.00,VWS V13.00,2013-08-04 00:52:00,
2013-08-03 20:57:00,80.3,73.6,29.95,SW,218,4.0,11.0,80,0.00,,---,0.00,VWS V13.00,2013-08-04 00:57:00,
2013-08-03 21:02:00,80.4,73.7,29.95,South,182,7.0,8.0,80,0.00,,---,0.00,VWS V13.00,2013-08-04 01:02:00,
2013-08-03 21:07:00,80.4,73.7,29.96,SSW,200,2.0,9.0,80,0.00,,---,0.00,VWS V13.00,2013-08-04 01:07:00,
2013-08-03 21:12:00,80.4,73.7,29.96,South,188,2.0,9.0,80,0.00,,---,0.00,VWS V13.00,2013-08-04 01:12:00,
2013-08-03 21:17:00,80.5,73.8,29.96,SSW,202,2.0,9.0,80,0.00,,---,0.00,VWS V13.00,2013-08-04 01:17:00,
2013-08-03 21:22:00,80.5,73.8,29.97,SW,219,7.0,9.0,80,0.00,,---,0.00,VWS V13.00,2013-08-04 01:22:00,
2013-08-03 21:27:00,80.5,74.1,29.97,SW,218,3.0,9.0,81,0.00,,---,0.00,VWS V13.00,2013-08-04 01:27:00,
2013-08-03 21:32:00,80.6,74.2,29.98,SSW,211,4.0,6.0,81,0.00,,---,0.00,VWS V13.00,2013-08-04 01:32:00,
2013-08-03 21:37:00,80.6,74.2,29.98,SW,223,8.0,8.0,81,0.00,,---,0.00,VWS V13.00,2013-08-04 01:37:00,
2013-08-03 21:42:00,80.7,74.3,29.98,WSW,240,7.0,10.0,81,0.00,,---,0.00,VWS V13.00,2013-08-04 01:42:00,
2013-08-03 21:47:00,80.8,74.4,29.98,SW,229,1.0,10.0,81,0.00,,---,0.00,VWS V13.00,2013-08-04 01:47:00,
2013-08-03 21:52:00,80.8,74.4,29.97,SSW,206,3.0,10.0,81,0.00,,---,0.00,VWS V13.00,2013-08-04 01:52:00,
2013-08-03 21:57:00,80.8,74.4,29.97,SSW,211,5.0,10.0,81,0.00,,---,0.00,VWS V13.00,2013-08-04 01:57:00,
2013-08-03 22:03:00,80.7,74.3,29.97,SW,221,6.0,7.0,81,0.00,,---,0.00,VWS V13.00,2013-08-04 02:03:00,
2013-08-03 22:08:00,80.7,74.3,29.96,SSW,210,7.0,8.0,81,0.00,,---,0.00,VWS V13.00,2013-08-04 02:08:00,
2013-08-03 22:13:00,80.7,74.3,29.96,SW,226,5.0,9.0,81,0.00,,---,0.00,VWS V13.00,2013-08-04 02:13:00,
2013-08-03 22:18:00,80.7,74.3,29.96,SSW,211,5.0,10.0,81,0.00,,---,0.00,VWS V13.00,2013-08-04 02:18:00,
2013-08-03 22:23:00,80.6,74.2,29.96,SW,219,6.0,10.0,81,0.00,,---,0.00,VWS V13.00,2013-08-04 02:23:00,
2013-08-03 22:28:00,80.6,74.2,29.96,SSW,200,3.0,10.0,81,0.00,,---,0.00,VWS V13.00,2013-08-04 02:28:00,
2013-08-03 22:33:00,80.6,74.2,29.96,WSW,245,3.0,7.0,81,0.00,,---,0.00,VWS V13.00,2013-08-04 02:33:00,
2013-08-03 22:38:00,80.6,74.2,29.97,WSW,256,4.0,10.0,81,0.00,,---,0.00,VWS V13.00,2013-08-04 02:38:00,
2013-08-03 22:42:00,80.6,74.2,29.97,WSW,253,3.0,11.0,81,0.00,,---,0.00,VWS V13.00,2013-08-04 02:42:00,
2013-08-03 22:47:00,80.5,74.1,29.97,SW,217,6.0,11.0,81,0.00,,---,0.00,VWS V13.00,2013-08-04 02:47:00,
2013-08-03 22:53:00,80.5,74.1,29.97,WSW,237,3.0,11.0,81,0.00,,---,0.00,VWS V13.00,2013-08-04 02:53:00,
2013-08-03 22:58:00,80.5,74.1,29.98,SW,229,6.0,11.0,81,0.00,,---,0.00,VWS V13.00,2013-08-04 02:58:00,
2013-08-03 23:03:00,80.5,74.1,29.98,SW,219,3.0,10.0,81,0.00,,---,0.00,VWS V13.00,2013-08-04 03:03:00,
2013-08-03 23:07:00,80.4,74.0,29.98,SW,230,5.0,10.0,81,0.00,,---,0.00,VWS V13.00,2013-08-04 03:07:00,
2013-08-03 23:13:00,80.4,74.0,29.98,WSW,237,4.0,10.0,81,0.00,,---,0.00,VWS V13.00,2013-08-04 03:13:00,
2013-08-03 23:18:00,80.3,73.9,29.97,WSW,241,9.0,10.0,81,0.00,,---,0.00,VWS V13.00,2013-08-04 03:18:00,
2013-08-03 23:23:00,80.3,73.9,29.97,WSW,243,3.0,10.0,81,0.00,,---,0.00,VWS V13.00,2013-08-04 03:23:00,
2013-08-03 23:28:00,80.3,73.9,29.97,SSW,209,2.0,10.0,81,0.00,,---,0.00,VWS V13.00,2013-08-04 03:28:00,
2013-08-03 23:33:00,80.3,73.9,29.97,WSW,250,8.0,9.0,81,0.00,,---,0.00,VWS V13.00,2013-08-04 03:33:00,
2013-08-03 23:38:00,80.3,73.9,29.97,WSW,247,7.0,10.0,81,0.00,,---,0.00,VWS V13.00,2013-08-04 03:38:00,
2013-08-03 23:43:00,80.3,73.9,29.97,WSW,238,5.0,10.0,81,0.00,,---,0.00,VWS V13.00,2013-08-04 03:43:00,
2013-08-03 23:48:00,80.3,73.9,29.97,West,260,1.0,10.0,81,0.00,,---,0.00,VWS V13.00,2013-08-04 03:48:00,
2013-08-03 23:52:00,80.3,73.9,29.97,West,274,6.0,10.0,81,0.00,,---,0.00,VWS V13.00,2013-08-04 03:52:00,
2013-08-03 23:57:00,80.3,73.9,29.97,West,269,5.0,10.0,81,0.00,,---,0.00,VWS V13.00,2013-08-04 03:57:00,